Chicopee, MA

11:54 AM EDT on May 25, 2017 (GMT -0400)
Westover Air Reserve Base / Metropolitan Airport

Weather History for KCEF - November, 2012

Change the Weather History Date:

Sunday, November 4, 2012

  Actual Average Record
Temperature  
Mean Temperature 38 °F -  
Max Temperature 52 °F 51 °F 69 °F (2005)
Min Temperature 26 °F 32 °F 19 °F (1998)
Degree Days  
Heating Degree Days 27    
Moisture  
Dew Point 29 °F    
Average Humidity 68    
Maximum Humidity 95    
Minimum Humidity 47    
Precipitation  
Precipitation 0.00 in - - ()
Sea Level Pressure  
Sea Level Pressure 29.92 in    
Wind  
Wind Speed 5 mph (NW)    
Max Wind Speed 12 mph    
Max Gust Speed -    
Visibility 10 miles    
Events      
Averages and records for this station are not official NWS values.
T = Trace of Precipitation, MM = Missing Value Source: NWS Daily Summary

Daily Weather History Graph

Daily Weather History Graph

Search for Another Location

Airport or City:

Trip Planner

Search our weather history database for the weather conditions in past years. The results will help you decide how hot, cold, wet, or windy it might be!

Date:

Astronomy

Nov. 04, 2012 Rise Set
Actual Time 6:27 AM EST 4:39 PM EST
Civil Twilight 5:58 AM EST 5:08 PM EST
Nautical Twilight 5:24 AM EST 5:42 PM EST
Astronomical Twilight 4:52 AM EST 6:14 PM EST
Moon 9:13 PM EST (11/4) 11:10 AM EST (11/4)
Length of Visible Light 11h 10m
Length of Day
10h 12m
Waning Gibbous, 72% of the Moon is Illuminated
Nov 4
Waning Gibbous
Nov 6
Last Quarter
Nov 13
New
Nov 20
First Quarter
Nov 28
Full

Hourly Weather History & Observations

Time (EST) Temp. Windchill Dew Point Humidity Pressure Visibility Wind Dir Wind Speed Gust Speed Precip Events Conditions
12:55 AM 33.1 °F 28.7 °F 28.2 °F 82% 29.87 in 10.0 mi WSW 4.6 mph - N/A   Clear
1:55 AM 33.4 °F 28.1 °F 28.6 °F 82% 29.87 in 10.0 mi West 5.8 mph - N/A   Clear
1:55 AM 32.2 °F 25.8 °F 28.2 °F 85% 29.88 in 10.0 mi WNW 6.9 mph - N/A   Clear
2:55 AM 31.1 °F 27.7 °F 27.9 °F 88% 29.87 in 10.0 mi WNW 3.5 mph - N/A   Clear
3:55 AM 28.6 °F - 26.4 °F 92% 29.88 in 10.0 mi Calm Calm - N/A   Clear
4:55 AM 27.1 °F - 25.7 °F 94% 29.89 in 10.0 mi Calm Calm - N/A   Clear
5:55 AM 26.8 °F 22.8 °F 25.5 °F 95% 29.90 in 10.0 mi NNW 3.5 mph - N/A   Clear
6:55 AM 29.5 °F - 27.5 °F 92% 29.92 in 10.0 mi Calm Calm - N/A   Clear
7:55 AM 36.3 °F - 33.3 °F 89% 29.93 in 10.0 mi Calm Calm - N/A   Clear
8:55 AM 42.4 °F 37.5 °F 31.5 °F 65% 29.93 in 10.0 mi NNW 8.1 mph - N/A   Clear
9:55 AM 44.8 °F 41.0 °F 30.7 °F 58% 29.93 in 10.0 mi WNW 6.9 mph - N/A   Clear
10:55 AM 47.5 °F - 31.3 °F 53% 29.92 in 10.0 mi Variable 3.5 mph - N/A   Clear
11:55 AM 50.2 °F - 31.3 °F 48% 29.91 in 10.0 mi NW 5.8 mph - N/A   Clear
12:55 PM 50.7 °F - 30.9 °F 47% 29.89 in 10.0 mi NNW 11.5 mph - N/A   Scattered Clouds
1:55 PM 50.5 °F - 30.9 °F 47% 29.89 in 7.0 mi NNW 8.1 mph - N/A   Partly Cloudy
2:55 PM 48.2 °F - 30.7 °F 51% 29.91 in 10.0 mi North 10.4 mph - N/A   Scattered Clouds
3:55 PM 46.0 °F 41.0 °F 30.0 °F 54% 29.92 in 10.0 mi NNW 10.4 mph - N/A   Mostly Cloudy
4:55 PM 42.8 °F 37.5 °F 29.3 °F 59% 29.94 in 10.0 mi NNW 9.2 mph - N/A   Mostly Cloudy
5:55 PM 42.4 °F 37.5 °F 29.1 °F 59% 29.95 in 10.0 mi NNW 8.1 mph - N/A   Mostly Cloudy
6:55 PM 42.4 °F 38.8 °F 28.9 °F 59% 29.95 in 10.0 mi North 5.8 mph - N/A   Overcast
7:55 PM 42.4 °F 39.6 °F 29.1 °F 59% 29.96 in 10.0 mi NNW 4.6 mph - N/A   Overcast
8:55 PM 42.3 °F 40.5 °F 29.5 °F 61% 29.96 in 10.0 mi NW 3.5 mph - N/A   Overcast
9:55 PM 41.7 °F 37.3 °F 29.3 °F 61% 29.96 in 10.0 mi WNW 6.9 mph - N/A   Overcast
10:55 PM 41.4 °F 37.6 °F 28.8 °F 61% 29.95 in 10.0 mi NW 5.8 mph - N/A   Overcast